Regional Weather Roundup
Issued by NWS Portland, ME

Home | Current Version | Previous Version | Text Only | Print | Product List | Glossary On
Versions: 1 2 3 4 5 6 7 8 9 10 11 12 13 14 15 16 17 18 19 20 21 22 23 24 25 26 27 28 29 30 31 32 33 34 35 36 37 38 39 40 41 42 43 44 45 46 47 48 49 50
000
ASUS41 KGYX 302005
RWRGYX
WEATHER ROUNDUP FOR MAINE AND NEW HAMPSHIRE
NATIONAL WEATHER SERVICE GRAY ME
400 PM EDT SAT AUG 30 2014

MEZ002-005-006-010-012-015-018-020-021-024-026-027-029-302100-
MAINE

CITY           SKY/WX    TMP DP  RH WIND       PRES   REMARKS
PORTLAND       MOSUNNY   68  57  68 S14G21    30.17F
SANFORD        MOSUNNY   72  55  56 SE6       30.18F
BAR HARBOR     MOSUNNY   66  57  72 S17G23    30.18F
WISCASSET      SUNNY     70  55  59 S8        30.20F
ROCKLAND       MOSUNNY   66  55  68 S13G21    30.19F
FRYEBURG       MOSUNNY   75  54  47 S12G20    30.14F
LEWISTONAUBURN PTSUNNY   70  57  64 S13G20    30.16F
AUGUSTA        MOSUNNY   70  59  68 S10G23    30.15F
WATERVILLE     MOSUNNY   70  57  64 S10G17    30.10F
BANGOR         PTSUNNY   72  57  59 S16       30.14F
GREENVILLE       N/A     71  56  58 S10G20    30.09F
MILLINOCKET    PTSUNNY   74  57  55 VRB5      30.10F
HOULTON        PTSUNNY   72  56  57 SW13G22   30.06F
PRESQUE ISLE   PTSUNNY   75  55  50 S17       30.02F
FRENCHVILLE    CLOUDY    69  56  62 SW9G17    30.00F
CARIBOU        CLOUDY    75  57  53 SW15G21   30.01F
$$

NHZ002-005-008-009-011-012-014-302100-
NEW HAMPSHIRE

CITY           SKY/WX    TMP DP  RH WIND       PRES   REMARKS
PORTSMOUTH     MOSUNNY   72  57  60 S12       30.16F
ROCHESTER      MOSUNNY   73  58  59 SE9       30.16F
NASHUA         MOSUNNY   77  54  44 VRB7      30.18F
MANCHESTER     MOSUNNY   77  53  43 S15       30.15F
CONCORD        MOSUNNY   77  54  44 S15       30.15F
LACONIA        MOSUNNY   75  54  46 SW15G21   30.14F
PLYMOUTH       FAIR      76  61  58 S3        30.13F
BERLIN         MOSUNNY   76  55  48 SW6       30.11F
WHITEFIELD     MOSUNNY   76  53  44 SW8       30.12F
JAFFREY        SUNNY     73  54  51 SW10G16   30.20F
LEBANON        SUNNY     78  57  48 SW13      30.12F
MT WASHINGTON  MOSUNNY   52  36  54 W30         N/A
$$

VTZ005-007-008-302100-
VERMONT

CITY           SKY/WX    TMP DP  RH WIND       PRES   REMARKS
ST JOHNSBURY     N/A     75  56  51 MISG      30.08F
MONTPELIER     MOSUNNY   75  54  47 S15       30.14F
BURLINGTON     PTSUNNY   80  57  45 S18G28    30.06F
$$

MAZ007-012-024-CTZ003-RIZ002-NYZ038-NYZ072-302100-
SOUTHERN NEW ENGLAND AND NY

CITY           SKY/WX    TMP DP  RH WIND       PRES   REMARKS
BOSTON         MOSUNNY   77  51  40 S15       30.18F
WORCESTER      PTSUNNY   72  55  55 SW13      30.21F
NANTUCKET      SUNNY     68  55  63 SE9       30.25F
PROVIDENCE     MOSUNNY   73  59  61 S16G24    30.22F
HARTFORD       PTSUNNY   78  57  48 S9        30.16F
ALBANY         MOSUNNY   80  58  46 S16G22    30.11F
NEW YORK CITY  PTSUNNY   76  62  62 S14       30.19F
$$

ANZ081-ANZ082-ANZ150-NHZ014-MEZ023>029-302100-
COASTAL MARINE OBSERVATIONS

STATION/POSITION TIME  TEMP    WIND        PRES    WAVE
                       AIR SEA DIR/SP/G            HT/PER
                 (UTC) (F)     (DEG/KT/KT) (MB)    (FT/S)
MATINICUS ROCK   1900          210/ 11/ 12 1022.8F
PORTLAND WX BUOY 1950   63 63  170/ 16/ 19 1021.7F   3/ 5
WELLS            1900   65 61  190/ 15/ 18 1022.0F
ISLE OF SHOALS   1900   64     160/ 21/ 23 1022.0F
JEFFREYS LEDGE   1921      66                N/A     3/ 4
CASHES LEDGE BUO 1950   64 65              1022.7F   3/ 3
$$

.............KEY..............
   WCI - WIND CHILL
   TC  - TEMPERATURE IN CELSIUS
   VSB - VISIBILITY IN MILES
   HX  - HEAT INDEX
   FAIR- INDICATES FEW OR NO CLOUDS BELOW 12,000 FT, WITH NO
         SIGNIFICANT WEATHER AND/OR OBSTRUCTIONS TO VISIBILITY.




USA.gov is the U.S. government's official web portal to all federal, state and local government web resources and services.